Wind_Speed
8 7 6 5 6 7 8 10 11 13 13 13 13 12 11 10 8 5 4 3 2 2 1 2 2 3 4 6 6 7 8 8 8 8 7 7 7 6 6 6 6 6 6 7 7 7 7 7 7
7 7 6 5 5 6 8 9 11 13 13 13 13 12 11 10 8 6 4 3 2 1 1 1 2 3 4 5 6 7 7 7 7 7 7 6 6 6 6 6 6 6 6 6 6 6 6 6 6
7 7 6 6 6 6 7 8 10 12 13 14 14 13 12 10 8 6 5 3 1 0 1 2 2 3 4 5 6 6 6 6 6 6 6 6 5 5 5 5 6 6 6 6 5 5 5 5 5
7 7 6 6 6 6 8 8 9 10 12 13 13 13 12 11 9 7 4 3 2 1 2 2 3 4 5 5 5 5 6 6 6 6 5 5 5 5 4 5 5 5 5 5 5 4 4 4 5
7 7 7 6 7 6 6 7 8 9 12 12 13 12 11 10 8 7 5 3 2 1 1 3 4 4 5 5 5 5 5 5 5 5 5 4 4 4 4 4 4 5 5 4 4 4 3 3 4
8 8 7 7 7 7 6 6 7 8 11 12 12 12 12 11 8 7 5 3 2 1 1 2 4 5 5 5 5 5 5 4 4 4 4 3 3 3 3 3 4 4 4 4 4 3 2 2 3
9 9 9 9 8 8 7 6 6 7 9 11 11 11 11 10 8 7 5 3 2 1 0 2 4 5 6 5 5 5 5 4 4 4 3 2 2 2 2 2 3 3 4 3 3 3 2 2 3
10 10 10 10 10 9 8 7 8 7 8 10 10 10 11 10 9 7 6 4 3 2 0 2 4 5 6 6 6 6 5 5 4 3 3 2 1 1 1 1 2 3 3 3 2 2 2 2 2
11 11 11 11 11 11 10 10 9 7 6 8 9 10 10 10 10 8 6 5 3 2 1 2 3 4 5 6 6 7 6 6 5 4 3 2 1 1 0 1 1 2 2 2 2 2 2 1 1
12 12 12 13 13 13 12 11 10 8 6 6 8 9 10 11 10 8 6 5 3 2 1 2 3 4 5 6 7 7 7 6 6 5 4 3 2 2 1 1 1 1 1 1 1 1 1 1 1
12 13 14 14 14 14 14 12 11 10 6 5 7 8 9 11 11 9 7 5 4 3 3 3 4 5 5 6 7 7 8 8 7 6 5 4 3 2 2 2 1 1 1 1 0 0 0 0 1
14 15 16 15 15 15 15 14 13 12 8 6 6 8 9 10 10 10 8 6 5 4 4 4 5 6 6 7 7 8 9 9 9 8 7 6 5 4 4 3 2 1 1 1 1 1 1 1 1
16 16 17 17 17 17 17 16 14 12 10 8 8 9 10 10 10 10 9 8 6 6 5 5 5 6 7 8 9 8 9 9 9 9 9 8 7 6 6 4 3 2 2 1 1 1 1 2 2
17 18 19 19 19 18 18 17 15 13 13 10 9 9 10 11 11 11 10 8 7 7 6 6 6 6 7 9 10 10 10 10 10 9 9 9 8 7 7 6 5 4 3 3 3 2 2 2 2
18 18 19 20 20 20 19 17 16 15 14 11 10 11 11 11 11 11 11 10 9 9 8 7 7 8 8 10 11 12 11 12 11 10 10 9 9 9 8 7 6 5 4 5 4 3 3 2 2
19 19 20 21 21 21 21 18 17 16 14 13 12 11 12 11 11 12 12 11 11 11 9 9 9 9 10 10 11 13 13 13 13 12 11 11 10 10 9 9 7 6 5 5 5 4 4 3 3
20 21 20 21 22 23 22 20 18 17 15 14 13 11 11 11 13 13 12 12 12 10 10 10 11 11 12 13 13 13 14 14 14 13 13 12 12 12 11 10 9 7 6 6 6 5 5 4 4
21 21 21 22 23 23 23 21 19 18 16 14 13 12 11 12 14 14 13 12 12 12 12 13 12 13 14 15 14 14 14 15 14 14 13 13 12 13 13 11 10 9 8 8 8 7 6 6 5
22 21 21 22 24 24 23 21 20 19 17 15 13 12 12 12 13 14 14 12 13 12 13 14 14 14 15 16 17 16 15 15 15 15 14 14 13 14 14 13 12 11 10 9 9 8 8 8 7
22 20 20 22 24 23 23 21 20 19 17 14 13 13 13 13 15 15 14 14 14 14 13 14 14 15 16 16 18 19 18 17 17 16 15 14 14 15 15 15 14 13 12 11 10 10 9 9 8
22 20 20 23 24 24 23 22 20 19 18 15 14 13 13 14 15 16 15 15 15 15 15 15 15 16 16 17 18 19 19 17 16 16 16 15 15 16 16 16 16 15 14 13 12 11 11 10 9
22 21 22 25 25 24 23 22 20 18 17 15 14 13 14 15 15 16 16 16 15 15 15 15 15 15 16 17 18 18 19 20 18 18 18 17 16 17 17 18 17 17 16 15 14 13 12 12 11
23 24 25 26 26 25 24 22 19 18 16 14 14 15 15 15 15 15 16 17 17 16 16 15 15 15 16 18 18 18 18 20 20 21 19 18 17 18 19 20 19 18 18 17 16 16 15 14 13
26 27 27 27 26 25 24 23 20 18 16 16 16 16 15 15 15 16 17 17 17 17 17 16 16 16 16 17 17 17 17 18 20 21 21 20 18 18 20 21 21 20 20 19 18 17 16 15 15
27 27 27 27 26 25 24 24 21 18 18 18 17 16 16 16 16 16 17 17 17 17 16 16 16 17 18 17 18 19 19 19 20 21 22 21 20 20 20 22 22 21 21 20 20 19 18 17 17
26 27 26 26 25 23 23 22 21 19 19 18 17 16 17 17 17 16 16 17 16 15 15 14 15 15 17 17 17 19 20 21 21 21 22 22 22 21 21 22 22 22 22 22 21 20 20 18 18
27 26 25 25 24 23 22 20 19 18 18 17 17 17 17 17 16 15 16 16 14 13 13 13 13 13 14 16 16 18 19 19 21 21 21 22 23 22 23 23 23 22 22 22 21 20 20 20 19
27 26 26 25 23 22 20 18 17 16 15 15 15 15 14 13 12 12 13 13 13 13 13 12 12 11 12 14 15 16 17 18 19 21 21 23 23 23 23 24 24 23 22 22 22 21 21 21 20
27 27 26 25 23 21 19 16 14 14 15 14 14 13 12 12 11 10 11 11 11 11 11 11 12 12 11 12 14 15 17 17 19 21 21 22 22 22 22 22 23 23 24 23 23 22 22 22 21
27 26 24 23 21 19 18 15 13 13 12 12 12 12 11 11 9 9 10 9 9 10 10 9 11 11 11 12 13 15 16 17 18 20 21 21 22 22 21 21 21 22 23 24 23 23 22 22 22
Wind_Direction
12 14 14 22 28 27 36 37 40 40 38 38 38 37 34 32 34 32 30 42 57 68 102 137 154 155 145 131 121 114 107 98 88 81 74 70 67 65 65 67 66 66 66 67 66 66 70 74 80
1 359 0 9 17 18 27 30 36 39 33 30 30 30 28 24 25 24 23 29 35 48 128 147 149 145 143 138 128 120 113 106 97 88 78 71 68 64 61 62 62 62 62 63 62 65 68 72 77
351 349 351 355 357 11 17 25 35 38 31 26 24 25 21 20 20 19 22 28 20 285 208 184 168 157 150 144 136 129 124 115 105 93 83 74 68 63 59 58 58 57 58 59 59 62 65 69 74
337 338 338 340 343 354 5 16 25 34 30 24 22 20 16 12 10 12 17 18 8 300 223 197 181 170 160 152 146 139 132 124 114 101 90 79 71 64 58 56 54 51 52 54 54 56 63 71 75
324 324 325 322 327 336 355 10 18 28 30 23 17 16 11 6 5 5 11 10 16 23 205 196 185 177 167 163 159 151 147 139 127 113 100 88 75 67 57 52 50 45 43 46 50 53 63 76 82
310 312 309 306 313 319 330 344 6 16 27 24 16 13 8 4 1 1 0 6 9 8 221 204 192 185 177 172 171 168 165 156 144 132 115 98 80 69 57 46 44 41 38 40 46 46 53 80 92
301 302 299 299 300 305 316 325 339 2 20 22 18 10 6 3 358 352 350 349 345 346 278 188 193 192 188 188 186 184 182 174 162 148 137 123 96 74 53 38 35 35 33 33 38 44 48 72 92
291 291 291 291 291 297 305 308 324 342 9 18 14 5 1 358 357 353 349 347 334 316 276 195 195 196 196 198 200 197 192 188 184 175 168 158 134 107 34 16 20 28 27 30 35 40 41 65 94
283 282 283 284 285 290 298 302 316 333 0 12 10 4 358 355 354 350 347 341 330 315 273 206 203 202 204 205 205 205 201 197 194 194 203 209 220 221 266 341 10 20 24 29 32 35 37 66 102
275 274 273 277 280 285 294 299 308 317 338 355 354 355 351 348 348 347 338 335 329 314 290 235 210 207 209 208 207 208 208 205 203 204 212 220 238 236 228 253 291 332 1 10 31 38 36 77 108
265 263 265 271 275 280 287 291 296 302 311 330 337 339 343 340 341 343 337 331 314 294 281 249 222 215 214 211 209 209 211 209 207 210 217 223 229 235 226 237 254 284 290 292 53 44 26 97 123
259 258 260 266 272 277 282 286 289 298 293 302 314 321 327 330 330 328 327 324 310 297 287 256 233 221 217 211 210 213 211 212 214 218 219 222 228 231 227 233 244 280 276 293 265 196 204 223 197
256 255 257 261 268 273 279 283 287 289 288 291 299 309 316 319 318 319 319 312 304 294 287 267 238 223 218 217 219 219 214 215 218 222 223 223 228 228 225 227 239 256 260 256 244 220 218 221 224
253 252 256 260 263 268 273 277 281 283 280 282 286 295 306 310 312 312 310 304 298 290 283 269 246 231 223 223 223 223 220 221 222 224 223 225 228 226 225 227 230 238 243 236 231 225 226 214 218
252 251 254 256 258 261 267 268 274 276 277 276 279 284 290 295 303 306 305 299 289 287 278 262 249 243 233 228 227 226 224 224 226 225 226 225 225 222 225 227 227 234 236 232 227 219 227 227 217
252 250 250 252 255 258 263 264 267 270 272 272 274 279 284 292 300 301 299 296 289 289 277 267 258 254 242 235 229 226 225 224 226 226 225 222 221 219 222 224 224 231 234 229 225 223 234 234 221
251 249 248 248 251 255 260 262 263 265 267 268 271 280 286 293 297 297 297 291 292 286 281 273 256 251 246 239 234 231 231 227 226 226 227 222 220 216 218 222 223 230 236 230 226 229 232 231 231
250 247 246 246 249 252 258 262 262 262 264 264 268 275 283 289 295 293 289 287 287 286 280 273 257 253 249 242 236 235 234 231 227 226 227 222 220 217 218 221 222 227 231 230 230 230 233 233 236
246 245 244 244 248 251 255 258 261 263 265 266 269 276 283 287 289 291 289 289 282 279 280 276 267 261 255 246 236 235 234 229 227 228 225 222 221 218 218 220 223 228 231 231 232 233 235 236 236
243 242 240 240 245 248 252 257 261 263 263 264 271 278 283 288 286 286 285 286 283 283 280 278 271 264 259 245 234 232 231 230 229 228 228 227 225 221 219 223 226 229 232 234 237 237 238 237 238
240 238 235 235 241 246 250 255 261 264 263 263 270 277 282 285 286 285 282 284 281 277 279 275 269 262 254 244 238 233 230 227 226 227 230 230 228 225 223 225 227 232 234 236 237 238 233 233 236
235 232 230 232 236 242 250 254 260 262 263 266 271 275 278 280 283 282 278 281 282 273 270 268 263 258 252 246 242 237 232 229 227 227 227 227 228 225 225 226 228 234 237 237 236 236 233 235 238
228 227 228 232 236 241 249 254 257 261 261 265 269 273 274 278 280 278 279 281 281 271 265 263 261 256 254 250 246 236 234 233 228 227 227 227 230 229 226 226 228 234 237 237 237 237 236 237 238
224 226 229 233 237 241 248 254 258 261 261 265 267 270 274 276 279 280 278 279 279 271 266 264 260 255 253 250 247 238 234 230 229 229 229 229 231 231 228 227 230 234 236 237 236 236 236 237 238
225 228 230 234 238 244 248 253 259 261 262 265 266 268 274 279 281 283 283 281 277 273 270 264 259 255 253 247 244 240 236 230 230 230 230 232 234 233 231 230 232 233 234 235 235 236 235 236 239
226 229 232 237 241 244 247 253 258 262 265 268 268 271 277 279 278 280 281 279 275 269 268 268 262 256 247 243 241 238 235 232 232 232 233 234 235 233 231 229 230 232 234 236 236 236 236 237 238
223 228 234 238 242 245 249 254 259 263 265 268 270 273 276 275 273 276 277 282 277 271 267 267 264 258 244 243 243 238 237 235 230 233 235 235 234 233 233 230 231 233 234 236 238 237 237 238 239
221 226 231 236 241 246 250 254 258 264 266 268 270 271 275 272 272 277 282 286 274 267 267 270 269 261 246 243 243 240 237 234 233 232 235 235 233 234 233 232 232 233 235 236 238 239 238 240 240
222 225 231 237 242 245 249 252 259 266 268 265 267 270 271 269 271 275 283 291 280 273 271 275 273 265 255 245 242 239 235 237 234 232 232 232 231 231 231 232 233 235 236 236 238 239 241 241 242
222 225 230 235 241 245 251 251 256 261 261 263 267 268 272 268 266 272 278 282 286 282 279 278 280 272 256 246 243 241 239 238 236 233 230 231 230 230 229 230 233 235 237 237 238 240 241 244 247
Height
5879 5879 5880 5880 5881 5881 5879 5879 5878 5877 5877 5876 5876 5875 5875 5875 5876 5878 5876 5875 5875 5876 5877 5878 5878 5879 5880 5881 5882 5883 5884 5885 5887 5888 5889 5890 5891 5892 5892 5893 5893 5893 5894 5894 5894 5894 5894 5894 5895
5880 5880 5881 5881 5881 5881 5881 5880 5879 5878 5878 5877 5876 5876 5876 5875 5875 5875 5875 5875 5875 5876 5877 5877 5878 5879 5880 5881 5882 5884 5885 5886 5887 5888 5889 5891 5891 5892 5893 5894 5894 5894 5894 5895 5895 5895 5895 5895 5896
5880 5880 5881 5881 5881 5881 5881 5880 5880 5879 5878 5877 5876 5876 5876 5876 5876 5875 5875 5875 5875 5876 5876 5877 5878 5879 5880 5881 5883 5884 5885 5886 5888 5889 5890 5891 5892 5893 5894 5894 5895 5895 5895 5895 5896 5896 5896 5896 5896
5881 5881 5881 5881 5881 5881 5881 5881 5880 5879 5878 5877 5877 5877 5876 5876 5876 5875 5875 5875 5875 5876 5876 5877 5878 5879 5880 5881 5883 5884 5885 5887 5888 5889 5890 5891 5892 5893 5894 5895 5895 5895 5896 5896 5896 5897 5897 5897 5897
5881 5881 5881 5880 5880 5881 5881 5881 5880 5880 5879 5878 5877 5877 5876 5876 5876 5875 5875 5875 5875 5876 5876 5876 5877 5878 5880 5881 5883 5884 5885 5887 5888 5889 5890 5892 5893 5893 5894 5895 5895 5896 5896 5896 5897 5897 5897 5897 5898
5881 5880 5880 5880 5880 5880 5881 5880 5880 5880 5879 5878 5878 5877 5877 5876 5876 5876 5875 5875 5875 5876 5876 5876 5877 5878 5879 5881 5882 5884 5885 5886 5888 5889 5890 5891 5892 5893 5894 5895 5895 5896 5896 5897 5897 5897 5898 5898 5898
5880 5880 5879 5879 5879 5879 5880 5880 5880 5880 5879 5879 5878 5878 5877 5877 5876 5876 5875 5875 5875 5875 5875 5876 5876 5878 5879 5880 5882 5883 5885 5886 5887 5889 5890 5891 5892 5893 5894 5895 5895 5896 5897 5897 5897 5898 5898 5898 5899
5878 5879 5878 5878 5878 5878 5879 5879 5879 5879 5879 5879 5879 5878 5878 5877 5876 5876 5875 5875 5875 5875 5875 5875 5876 5877 5878 5880 5881 5883 5884 5885 5887 5888 5890 5891 5892 5893 5894 5895 5895 5896 5897 5897 5898 5898 5898 5898 5899
5877 5878 5876 5876 5876 5877 5877 5877 5878 5878 5878 5878 5879 5879 5878 5877 5876 5876 5875 5875 5875 5875 5874 5875 5876 5877 5878 5879 5880 5882 5883 5885 5886 5888 5889 5891 5892 5893 5894 5894 5895 5896 5897 5897 5898 5898 5898 5898 5899
5875 5875 5875 5875 5875 5875 5875 5876 5876 5877 5877 5878 5878 5878 5877 5876 5876 5875 5875 5875 5874 5874 5874 5874 5875 5876 5877 5878 5880 5881 5883 5884 5886 5887 5889 5890 5891 5892 5893 5894 5895 5896 5896 5897 5898 5898 5898 5898 5899
5873 5873 5873 5873 5873 5873 5874 5874 5875 5875 5876 5877 5877 5877 5877 5876 5875 5875 5874 5874 5874 5873 5873 5873 5874 5875 5876 5877 5879 5880 5881 5883 5885 5886 5888 5889 5890 5892 5893 5894 5895 5895 5896 5897 5898 5898 5898 5899 5899
5871 5871 5870 5871 5871 5871 5872 5873 5874 5874 5875 5875 5876 5876 5876 5875 5875 5874 5874 5873 5873 5873 5872 5873 5873 5874 5875 5876 5877 5879 5880 5882 5883 5885 5887 5888 5890 5891 5892 5893 5894 5895 5896 5896 5897 5898 5898 5899 5899
5868 5868 5868 5868 5869 5869 5870 5871 5872 5873 5873 5874 5874 5874 5875 5874 5874 5873 5873 5872 5872 5872 5871 5872 5872 5873 5874 5875 5876 5877 5879 5880 5882 5883 5885 5887 5888 5890 5891 5892 5893 5894 5895 5896 5896 5897 5898 5898 5899
5864 5864 5865 5866 5866 5867 5868 5869 5870 5871 5872 5872 5873 5873 5873 5873 5872 5872 5871 5871 5870 5870 5870 5870 5871 5871 5872 5873 5874 5876 5877 5878 5880 5882 5883 5885 5887 5888 5890 5891 5893 5894 5895 5895 5896 5897 5898 5898 5899
5860 5862 5862 5863 5863 5864 5866 5867 5868 5869 5870 5870 5871 5871 5871 5871 5871 5870 5869 5869 5868 5868 5868 5868 5869 5870 5870 5871 5872 5873 5875 5876 5878 5880 5881 5883 5885 5887 5888 5890 5891 5893 5894 5895 5896 5896 5897 5898 5899
5857 5858 5859 5860 5860 5861 5864 5865 5865 5866 5867 5868 5869 5869 5869 5869 5868 5868 5867 5866 5866 5865 5866 5866 5867 5867 5868 5869 5870 5871 5873 5874 5876 5877 5879 5881 5883 5885 5887 5889 5890 5892 5893 5894 5895 5896 5897 5897 5898
5853 5854 5856 5857 5857 5858 5859 5861 5863 5863 5864 5865 5866 5866 5866 5866 5866 5865 5865 5864 5863 5863 5863 5864 5864 5864 5866 5867 5867 5869 5870 5872 5873 5875 5877 5878 5880 5883 5885 5887 5889 5890 5892 5893 5894 5895 5896 5897 5898
5848 5850 5852 5853 5853 5854 5856 5858 5859 5860 5861 5862 5863 5863 5864 5864 5864 5862 5862 5861 5860 5860 5861 5861 5861 5861 5863 5864 5865 5866 5868 5869 5871 5873 5874 5876 5878 5881 5883 5886 5887 5889 5891 5892 5893 5894 5895 5896 5897
5844 5846 5848 5849 5849 5851 5852 5854 5856 5857 5858 5859 5860 5860 5860 5860 5860 5859 5858 5858 5858 5857 5857 5857 5857 5858 5859 5860 5862 5863 5865 5866 5868 5870 5872 5874 5876 5879 5881 5884 5886 5888 5889 5891 5892 5893 5894 5895 5896
5839 5842 5844 5845 5846 5847 5849 5851 5852 5853 5854 5856 5856 5857 5857 5857 5856 5856 5855 5855 5855 5854 5854 5854 5854 5854 5855 5856 5858 5860 5861 5863 5865 5868 5870 5872 5874 5876 5879 5882 5884 5885 5887 5889 5890 5891 5892 5893 5894
5835 5838 5840 5841 5842 5843 5846 5848 5849 5850 5851 5852 5853 5853 5853 5853 5852 5852 5852 5852 5852 5851 5851 5850 5850 5850 5850 5852 5853 5855 5857 5860 5862 5865 5867 5870 5871 5874 5876 5879 5881 5883 5885 5887 5888 5889 5891 5892 5893
5831 5834 5835 5837 5838 5840 5842 5844 5846 5846 5848 5849 5850 5850 5850 5850 5849 5848 5848 5848 5847 5847 5847 5846 5846 5846 5846 5847 5849 5851 5854 5857 5859 5861 5864 5866 5868 5871 5874 5876 5878 5881 5882 5884 5886 5887 5888 5890 5891
5827 5828 5831 5832 5834 5837 5838 5840 5843 5843 5844 5845 5846 5846 5847 5846 5845 5845 5844 5843 5843 5843 5842 5842 5842 5842 5843 5843 5845 5847 5849 5852 5855 5857 5860 5863 5865 5867 5870 5873 5875 5878 5879 5881 5883 5884 5886 5887 5889
5821 5823 5826 5828 5830 5833 5836 5837 5839 5840 5841 5842 5842 5842 5842 5842 5842 5841 5839 5839 5838 5838 5838 5838 5838 5838 5839 5839 5841 5843 5845 5847 5851 5853 5856 5859 5861 5863 5866 5869 5871 5874 5876 5878 5880 5881 5883 5885 5886
5816 5820 5823 5825 5827 5830 5832 5833 5836 5836 5837 5837 5838 5838 5838 5838 5837 5837 5836 5835 5834 5834 5834 5834 5833 5833 5834 5835 5837 5839 5841 5843 5846 5850 5853 5855 5858 5860 5862 5865 5867 5870 5872 5874 5876 5878 5880 5881 5883
5812 5816 5820 5822 5824 5827 5828 5829 5832 5832 5833 5833 5834 5834 5834 5834 5834 5833 5832 5831 5830 5830 5830 5829 5829 5828 5829 5830 5832 5835 5836 5839 5841 5845 5848 5851 5853 5856 5858 5860 5863 5865 5868 5870 5873 5875 5876 5878 5879
5808 5812 5816 5818 5820 5822 5824 5826 5828 5828 5829 5829 5830 5831 5831 5830 5830 5830 5829 5828 5827 5827 5826 5826 5825 5824 5825 5827 5828 5830 5832 5834 5837 5840 5843 5846 5848 5851 5854 5856 5859 5861 5864 5866 5869 5871 5873 5874 5876
5805 5808 5811 5814 5816 5819 5821 5822 5825 5825 5825 5826 5827 5827 5827 5827 5827 5826 5826 5825 5824 5824 5824 5823 5822 5821 5822 5823 5824 5826 5827 5830 5832 5835 5838 5841 5844 5846 5849 5852 5855 5857 5860 5863 5865 5867 5869 5870 5872
5801 5805 5807 5810 5813 5816 5817 5822 5822 5822 5822 5822 5823 5824 5824 5824 5824 5824 5823 5822 5822 5821 5820 5820 5820 5819 5819 5820 5822 5823 5825 5826 5828 5831 5834 5836 5839 5842 5845 5847 5850 5853 5856 5858 5861 5863 5865 5866 5868
5797 5801 5804 5807 5810 5812 5814 5820 5818 5818 5818 5819 5820 5821 5821 5821 5821 5821 5821 5820 5819 5819 5818 5817 5817 5817 5817 5818 5819 5820 5821 5823 5825 5827 5829 5831 5834 5838 5841 5843 5846 5849 5851 5854 5856 5858 5860 5862 5863